Regional Weather Roundup
Issued by NWS Mt. Holly, NJ

Home | Current Version | Previous Version | Text Only | Print | Product List | Glossary On
Versions: 1 2 3 4 5 6 7 8 9 10 11 12 13 14 15 16 17 18 19 20 21 22 23 24 25 26 27 28 29 30 31 32 33 34 35 36 37 38 39 40 41 42 43 44 45 46 47 48 49 50
000
ASUS41 KPHI 190512
RWRPHI

REGIONAL WEATHER ROUNDUP
NATIONAL WEATHER SERVICE MOUNT HOLLY NJ
100 AM EDT MON AUG 19 2019

NOTE:  "FAIR" INDICATES FEW OR NO CLOUDS BELOW 12,000 FEET WITH NO
SIGNIFICANT WEATHER AND/OR OBSTRUCTIONS TO VISIBILITY.

 * = STATION DOES NOT REPORT PRECIPITATION (E.G. RAIN, SNOW, ETC.)
        OR FOG.

NJZ015>026-190600-
SOUTHERN NEW JERSEY

CITY           SKY/WX    TMP DP  RH WIND       PRES   REMARKS
POMONA         FAIR      75  73  93 CALM      29.98F
WILDWOOD*      FAIR      76  74  93 SW5       29.99S
MILLVILLE      FAIR      74  72  93 CALM      29.97
WRIGHTSTOWN    FAIR      74  74  99 S5        29.95F
MOUNT HOLLY    FAIR      72  71  97 CALM      29.96F
TRENTON        FAIR      72  68  87 CALM      29.96F

$$
NJZ001>014-190600-
NORTHERN NEW JERSEY

CITY           SKY/WX    TMP DP  RH WIND       PRES   REMARKS
SUSSEX         FAIR      66  64  93 SW3       29.98S
ANDOVER*         N/A     67  66  97 CALM      29.98F
MORRISTOWN     FAIR      68  68 100 CALM      29.98R
NEWARK         FAIR      74  66  76 SW5       29.96F
TETERBORO      FAIR      71  63  75 CALM      29.95F
CALDWELL       FAIR      71  68  90 W6        29.98F
SOMERVILLE     CLOUDY    69  68  96 CALM      29.96  FOG
ALLAIRE*       FAIR      74  70  87 SE6       29.98F
TOMS RIVER*    FAIR     N/A N/A N/A S5        29.98S

$$
PAZ043-044-047-054-055-060>062-066>071-190600-
EASTERN PENNSYLVANIA

CITY           SKY/WX    TMP DP  RH WIND       PRES   REMARKS
PHILADELPHIA   MOCLDY    76  69  79 SE5       29.96F
NORTH PHILA    FAIR      75  68  78 N3        29.98F
BLUE BELL*     FAIR      70  70  99 CALM      29.98F
DOYLESTOWN     FAIR      71  68  90 CALM      29.97F
QUAKERTOWN*    CLEAR     70  70 100 CALM      29.99
PERKASIE*      FAIR      68  68 100 CALM      29.99F FOG
POTTSTOWN      FAIR      69  69 100 CALM      30.00S
LANCASTER      FAIR      72  68  87 SE3       29.97F
COATESVILLE    FAIR      72  68  88 CALM      30.00S
WEST CHESTER   FAIR      73  68  83 E5        29.98F
READING        FAIR      70  70 100 W3        29.96F
ALLENTOWN      FAIR      72  69  90 E3        29.97F
QN CITY/ALNTWN FAIR      72  72 100 CALM      29.98F
MOUNT POCONO   FAIR      65  64  97 CALM      30.02F
LEHIGHTON      LGT RAIN  68  68 100 CALM      29.98F
WILKES BARRE   FAIR      67  65  93 CALM      29.99R

$$
DEZALL-MDZ008-012-015-019-020-190600-
DELAWARE AND EASTERN MARYLAND

CITY           SKY/WX    TMP DP  RH WIND       PRES   REMARKS
WILMINGTON     FAIR      77  73  87 CALM      29.96F
DOVER          FAIR      76  74  92 S10       29.97F
CHESWOLD       CLEAR     77  75  94 S6        29.96F
GEORGETOWN     FAIR      74  74 100 CALM      29.99S
EASTON         MOCLDY    78  75  91 SE5       30.01S
STEVENSVILLE   FAIR      77  72  83 CALM      29.97R
PATUXENT       FAIR      78  76  93 S5        29.98
OCEAN CITY     FAIR      74  73  97 S3        29.99S
WALLOPS ISLAND FAIR      77  74  90 SW5       30.00R
CAMBRIDGE      CLEAR     75  75 100 SE3       29.98R
SALISBURY      FAIR      75  72  90 CALM      29.99R

$$
PAZ001-021-NYZ056-072-MDZ011-DCZ001-190600-
OTHER NEARBY LOCATIONS

CITY           SKY/WX    TMP DP  RH WIND       PRES   REMARKS
HARRISBURG     FAIR      73  68  84 E5        29.96F
STATE COLLEGE  FAIR      67  65  93 W8        30.00S
WILLIAMSPORT   FAIR      66  64  93 W3        29.97R
BINGHAMTON     FAIR      65  59  81 S3        29.98S
NEW YORK CITY  FAIR      73  65  75 SE3       29.98F
BALTIMORE      FAIR      74  70  87 CALM      29.98R
WASHINGTON DC  MOCLDY    81  70  69 S5        29.99R

$$



USA.gov is the U.S. government's official web portal to all federal, state and local government web resources and services.